This is the latest recevied weather packets stored in our database for station/object N7IGG. If no packets are shown the sender has not sent any weather packets the latest 10 day(s).
| Time | Temp. | Humidity | Pressure | Rain* | Wind** | Luminosity | Snow |
|---|---|---|---|---|---|---|---|
| 1777481675 | 11.11° C | 86% | 1025 hPa | 0 mm | - | 45 W/m² | - |
| 1777481372 | 11.11° C | 87% | 1025 hPa | 0 mm | - | 86 W/m² | - |
| 1777481068 | 11.11° C | 87% | 1025.1 hPa | 0 mm | - | 44 W/m² | - |
| 1777480765 | 11.11° C | 88% | 1025.2 hPa | 0 mm | - | 45 W/m² | - |
| 1777480462 | 11.11° C | 88% | 1025.1 hPa | 0 mm | - | 44 W/m² | - |
| 1777480158 | 10.56° C | 89% | 1025.2 hPa | 0 mm | - | 59 W/m² | - |
| 1777479855 | 10.56° C | 89% | 1025 hPa | 0 mm | - | 116 W/m² | - |
| 1777479552 | 10.56° C | 90% | 1025 hPa | 0 mm | - | 51 W/m² | - |
| 1777479249 | 10.56° C | 90% | 1025.3 hPa | 0 mm | - | 164 W/m² | - |
| 1777478945 | 10° C | 91% | 1025.4 hPa | 0 mm | - | 44 W/m² | - |
| 1777478642 | 10° C | 91% | 1025.2 hPa | 0 mm | - | 53 W/m² | - |
| 1777478339 | 10° C | 92% | 1025.4 hPa | 0 mm | - | 77 W/m² | - |
| 1777478035 | 10° C | 92% | 1025.4 hPa | 0 mm | - | 43 W/m² | - |
| 1777477730 | 10° C | 92% | 1025.4 hPa | 0 mm | - | 150 W/m² | - |
| 1777477428 | 10° C | 92% | 1025.3 hPa | 0 mm | - | 42 W/m² | - |
| 1777477124 | 10° C | 92% | 1025.4 hPa | 0 mm | - | 40 W/m² | - |
| 1777476821 | 9.44° C | 92% | 1025.4 hPa | 0 mm | - | 61 W/m² | - |
| 1777476518 | 9.44° C | 93% | 1025.4 hPa | 0 mm | - | 42 W/m² | - |
| 1777476214 | 9.44° C | 93% | 1025.5 hPa | 0 mm | - | 126 W/m² | - |
| 1777475910 | 9.44° C | 93% | 1025.4 hPa | 0 mm | - | 37 W/m² | - |
| 1777475606 | 8.89° C | 93% | 1025.5 hPa | 0 mm | - | 35 W/m² | - |
| 1777475303 | 8.89° C | 94% | 1025.3 hPa | 0 mm | - | 31 W/m² | - |
| 1777474998 | 8.89° C | 94% | 1025.4 hPa | 0 mm | - | 29 W/m² | - |
| 1777474695 | 8.89° C | 94% | 1025.4 hPa | 0 mm | - | 28 W/m² | - |
| 1777474391 | 8.33° C | 94% | 1025.2 hPa | 0 mm | - | 28 W/m² | - |
* Rain latest hour (hover to see other rain measurements)
** Current wind speed in m/s (hover to see current wind gust speed)